Precipitable_Water
0.61 0.62 0.62 0.59 0.56 0.52 0.46 0.43 0.37 0.31 0.29 0.27 0.26 0.26 0.25 0.24 0.23 0.23 0.22 0.22 0.22 0.23
0.63 0.63 0.61 0.58 0.54 0.49 0.45 0.39 0.34 0.30 0.28 0.27 0.26 0.25 0.24 0.23 0.22 0.22 0.22 0.22 0.23 0.23
0.63 0.63 0.61 0.56 0.51 0.46 0.43 0.36 0.32 0.29 0.28 0.26 0.26 0.25 0.24 0.23 0.23 0.22 0.22 0.22 0.22 0.23
0.62 0.61 0.58 0.53 0.48 0.46 0.38 0.34 0.31 0.29 0.27 0.26 0.25 0.24 0.23 0.22 0.22 0.21 0.21 0.22 0.22 0.24
0.61 0.59 0.55 0.49 0.46 0.42 0.36 0.33 0.30 0.29 0.26 0.25 0.25 0.24 0.23 0.22 0.22 0.21 0.21 0.22 0.23 0.25
0.59 0.56 0.52 0.47 0.45 0.38 0.34 0.32 0.30 0.28 0.26 0.25 0.24 0.24 0.23 0.22 0.22 0.22 0.23 0.24 0.25 0.26
0.57 0.53 0.48 0.46 0.40 0.37 0.34 0.31 0.29 0.27 0.26 0.25 0.24 0.24 0.23 0.23 0.23 0.23 0.25 0.27 0.28 0.28
0.54 0.49 0.46 0.43 0.39 0.36 0.33 0.31 0.29 0.27 0.25 0.25 0.24 0.23 0.23 0.24 0.25 0.26 0.26 0.27 0.28 0.29
0.51 0.46 0.44 0.40 0.37 0.35 0.32 0.31 0.28 0.26 0.25 0.24 0.23 0.24 0.25 0.26 0.25 0.26 0.26 0.26 0.28 0.30
0.48 0.45 0.42 0.39 0.36 0.33 0.31 0.30 0.27 0.25 0.24 0.23 0.23 0.24 0.25 0.26 0.26 0.26 0.26 0.26 0.28 0.29
0.46 0.42 0.41 0.38 0.34 0.32 0.31 0.28 0.26 0.25 0.24 0.24 0.23 0.24 0.25 0.26 0.27 0.26 0.26 0.27 0.29 0.30
0.44 0.43 0.40 0.36 0.33 0.31 0.29 0.27 0.26 0.25 0.24 0.23 0.23 0.24 0.25 0.26 0.26 0.25 0.26 0.28 0.29 0.31
0.46 0.41 0.38 0.34 0.31 0.31 0.29 0.27 0.26 0.25 0.24 0.24 0.22 0.23 0.25 0.26 0.26 0.25 0.25 0.27 0.29 0.33
0.44 0.40 0.35 0.33 0.32 0.30 0.28 0.26 0.25 0.24 0.23 0.23 0.23 0.22 0.24 0.25 0.25 0.25 0.25 0.27 0.28 0.28
Wind_Speed
24 25 26 27 28 30 31 33 34 35 37 38 40 41 43 44 46 47 49 51 52 54
25 26 26 27 29 30 32 33 34 36 37 38 40 41 43 44 46 47 49 50 51 52
25 26 27 27 29 30 32 33 35 36 37 38 40 41 43 44 46 47 48 49 50 51
25 26 27 27 29 30 32 33 35 36 37 38 40 41 43 44 45 46 48 48 49 49
25 26 26 27 29 30 32 33 34 35 36 38 39 41 43 44 45 46 47 48 48 48
25 25 26 27 29 30 32 33 34 35 36 38 39 41 42 43 44 45 46 47 47 47
25 25 26 27 29 30 31 32 33 35 36 38 40 41 42 43 44 44 45 46 45 44
24 25 25 27 28 30 31 32 33 34 36 38 39 41 42 42 43 43 44 44 44 42
24 24 25 27 28 29 30 31 33 34 36 38 39 41 42 42 42 43 43 43 42 39
24 24 25 27 28 29 30 31 32 34 36 37 39 40 41 41 41 41 42 42 40 36
23 24 25 26 27 28 29 30 32 34 35 37 38 39 39 40 40 41 41 40 38 34
23 24 25 26 27 27 28 30 31 33 35 36 37 38 39 40 40 40 40 39 37 33
23 24 25 25 25 26 27 29 30 32 34 35 36 37 38 40 40 41 40 38 36 32
23 24 24 24 25 26 27 28 30 32 33 34 35 36 38 39 40 41 40 39 34 31
Wind_Direction
265 274 282 287 293 298 302 306 308 310 311 313 314 315 316 316 317 318 318 319 319 320
266 275 281 287 293 297 302 305 308 310 311 313 314 315 316 317 318 319 319 320 321 322
268 276 282 287 292 298 302 305 308 310 312 313 315 316 317 318 319 320 321 322 322 323
269 276 282 287 293 298 302 305 307 310 312 313 315 317 318 319 320 321 321 323 323 324
271 276 282 287 293 299 302 305 307 310 312 314 315 317 318 320 320 321 322 323 324 324
271 276 282 288 294 299 302 305 308 310 312 314 316 318 319 320 321 321 322 323 324 324
271 277 283 289 295 299 302 305 308 310 313 315 317 318 319 320 321 321 323 324 324 324
272 277 284 290 295 299 303 305 308 311 313 315 317 319 320 321 322 322 323 324 325 324
272 278 285 291 296 300 303 306 309 312 314 316 318 319 320 321 322 323 324 325 324 324
272 279 286 291 296 300 303 306 309 312 314 317 319 320 321 322 323 323 324 324 324 323
273 280 286 292 296 300 303 306 310 313 315 317 320 321 322 323 324 324 325 324 323 321
274 281 287 292 296 300 303 307 311 313 316 319 320 322 323 324 325 325 325 324 322 318
276 282 287 292 296 300 304 308 312 314 317 320 321 323 324 326 326 326 326 324 320 316
277 282 287 291 296 300 305 309 312 315 318 320 322 324 325 327 327 327 326 324 320 315